Location: Bazugues
(43.4465°N, 0.3432°E)
Time: 14:27:55
(UTC+00:00)

PSLV R/B - Visible Passes

Search period start: 11 April 2026 00:00
Search period end: 21 April 2026 00:00
Orbit: 559 x 586 km, 98.0° (Epoch: 11 April)

Date Brightness Start Highest point End Pass type
(mag) Time Alt. Az. Time Alt. Az. Time Alt. Az.
11 Apr 3.7 19:01:12 10° S 19:05:13 73° WSW 19:09:19 10° NNW visible
12 Apr 3.8 19:03:52 10° S 19:07:53 68° WSW 19:11:58 10° NNW visible
13 Apr 3.9 19:06:32 10° S 19:10:32 63° WSW 19:14:37 10° NNW visible
14 Apr 4.1 19:09:12 10° S 19:13:11 59° WSW 19:17:15 10° NNW visible
15 Apr 4.2 19:11:52 10° S 19:15:51 55° W 19:19:53 10° NNW visible
16 Apr 4.4 19:14:33 10° S 19:18:30 51° W 19:22:31 10° NNW visible
17 Apr 4.5 19:17:13 10° S 19:21:09 48° W 19:25:09 10° NNW visible
18 Apr 4.6 19:19:54 10° S 19:23:48 45° W 19:27:46 10° NNW visible
19 Apr 4.8 19:22:35 10° S 19:26:27 42° W 19:30:23 10° NNW visible
20 Apr 4.9 19:25:16 10° SSW 19:29:06 40° W 19:33:00 10° NNW visible
